Tracking 30415 objects as of 14-May-2025
HD Live streaming from Space Station
objects crossing your sky now

STARLINK-5339

Track STARLINK-5339 now!
10-day predictions
STARLINK-5339 is classified as:


NORAD ID: 56510
Int'l Code: 2023-065H
Perigee: 565.1 km
Apogee: 567.4 km
Inclination: 43.0 °
Period: 95.8 minutes
Semi major axis: 6937 km
RCS: Unknown
Launch date: May 14, 2023
Source: United States (US)
Launch site: AIR FORCE EASTERN TEST RANGE (AFETR)
Your satellite tracking list
Your tracking list is empty




NASA's NSSDC Master Catalog

Two Line Element Set (TLE):
1 56510U 23065H   25134.08445341 -.00000046  00000-0  11705-4 0  9996
2 56510  43.0053  38.5430 0001652 269.3405  90.7248 15.02518548110775
Source of the keplerian elements: AFSPC